Regional Weather Roundup
Issued by NWS Sioux Falls, SD

Home | Current Version | Previous Version | Graphics & Text | Print | Product List | Glossary Off
Versions: 1 2 3 4 5 6 7 8 9 10 11 12 13 14 15 16 17 18 19 20 21 22 23 24 25 26 27 28 29 30 31 32 33 34 35 36 37 38 39 40 41 42 43 44 45 46 47 48 49 50

000
ASUS43 KFSD 282310
RWRFSD

WEATHER ROUNDUP FOR SE SOUTH DAKOTA/SW MINNESOTA/NW IOWA
NATIONAL WEATHER SERVICE SIOUX FALLS SD
600 PM CDT TUE MAR 28 2017

NOTE: "FAIR" INDICATES FEW OR NO CLOUDS BELOW 12,000 FEET WITH NO
SIGNIFICANT WEATHER AND OR OBSTRUCTIONS TO VISIBILITY.


SDZ038>040-050-052>070-290000-
SOUTHEAST SOUTH DAKOTA

CITY           SKY/WX    TMP DP  RH WIND       PRES   REMARKS
CHAMBERLAIN    CLOUDY    58  36  42 E9        30.08R
HURON          MOSUNNY   59  36  42 E8        30.09R
MADISON        FAIR      55  36  47 E13       30.09S
MITCHELL       CLOUDY    60  36  40 E13       30.09R
SIOUX FALLS    CLOUDY    60  38  43 E14       30.08S
WINNER         LGT RAIN  50  46  86 SW5       30.09R
YANKTON        CLOUDY    57  37  47 E16       30.07R
$$

MNZ071-072-080-081-089-090-097-098-290000-
SOUTHWEST MINNESOTA

CITY           SKY/WX    TMP DP  RH WIND       PRES   REMARKS
FAIRMONT       SUNNY     58  39  49 E13       30.10S
JACKSON        MOSUNNY   55  34  44 E13       30.11S
LUVERNE        MOSUNNY   55  34  44 E12       30.09F
MARSHALL       CLOUDY    60  36  40 E8        30.11S
MONTEVIDEO     SUNNY     63  34  34 E9        30.13R
PIPESTONE      CLOUDY    57  34  41 SE8       30.10R
REDWOOD FALLS  SUNNY     62  30  29 E8        30.11S
TRACY          CLOUDY    60  37  42 SE10      30.11S
WINDOM         MOSUNNY   59  34  38 NE13      30.10F
WORTHINGTON    MOSUNNY   56  37  49 E12       30.10S
$$

IAZ001>003-012>014-020>022-031-032-NEZ013-014-SDZ071-290000-
NORTHWEST IOWA

CITY           SKY/WX    TMP DP  RH WIND       PRES   REMARKS
CHEROKEE       SUNNY     57  37  46 E8        30.08R
DENISON        CLOUDY    50  43  76 E12       30.10R
ESTHERVILLE    SUNNY     56  38  50 E15       30.10R
LE MARS        MOSUNNY   61  39  44 E12       30.08R
ORANGE CITY    SUNNY     57  37  47 E8        30.08R
SHELDON        CLOUDY    57  36  44 E15G21    30.07S
SIOUX CITY     MOSUNNY   60  36  40 E10G21    30.05R
SPENCER        SUNNY     57  39  51 E14       30.09S
STORM LAKE     MOSUNNY   55  41  58 E15       30.08R
$$

ABBREVIATIONS USED IN REMARKS
   TC - TEMPERATURE IN CELSIUS
  WCI - WIND CHILL INDEX
   HX - HEAT INDEX
  VSB - VISIBILITY





USA.gov is the U.S. government's official web portal to all federal, state and local government web resources and services.